Home > Weather > Ontario > Past weeks

Flag for U.S.A. Weather for the Past 2 Weeks in Ontario, California, U.S.A.

Now
52 °F

Clear.


Feels Like: 52 °F
Forecast: 55 / 86 °F
Wind: No wind

Location: Ontario International Airport

Current Time: Feb 9, 2016 at 1:03:24 AM

Latest Report: Feb 8, 2016 at 11:53 PM


Visibility: 10 mi

Pressure: 30.12 "Hg

Humidity: 45%

Dew point: 31 °F

Location of OntarioLocation

Historic Weather in Ontario — Graph

°F

Ontario Temperature Yesterday

Maximum temperature yesterday: 86 °F (at 1:53 PM)
Minimum temperature yesterday: 61 °F (at 10:53 PM)
Average temperature yesterday: 76 °F

High & Low Weather Summary for the Past Weeks

 TemperatureHumidityPressure
High86 °F (Feb 8, 1:53 PM)93% (Jan 30, 9:53 PM)30.37 "Hg (Jan 30, 9:53 PM)
Low34 °F (Feb 2, 1:53 AM)7% (Feb 7, 2:53 PM)29.59 "Hg (Jan 31, 1:53 PM)
Average57 °F43%30.13 "Hg
* Reported Jan 24 10:53 PM — Feb 8 10:53 PM, Ontario, Weather by CustomWeather, © 2016

Note: Actual official high and low records may vary slightly from our data, if they occured in-between our weather recording intervals... More about our weather records

Advertising

Ontario Weather History for the Previous 24 Hours

 ConditionsComfort  
Time TempWeatherWind HumidityBarometerVisibility
10:53 PM
Mon, Feb 8
61 °FClear.3 mph30%30.12 "Hg10 mi
9:53 PM62 °FClear.5 mph27%30.12 "Hg10 mi
8:53 PM66 °FPassing clouds.5 mph23%30.10 "Hg10 mi
7:53 PM69 °FClear.3 mph15%30.09 "Hg10 mi
6:53 PM76 °FClear.9 mph9%30.07 "Hg10 mi
5:53 PM76 °FClear.8 mph10%30.07 "Hg10 mi
4:53 PM82 °FSunny.7 mph9%30.04 "Hg10 mi
3:53 PM84 °FSunny.12 mph9%30.04 "Hg10 mi
2:53 PM85 °FSunny.13 mph9%30.04 "Hg10 mi
1:53 PM86 °FSunny.12 mph9%30.05 "Hg10 mi
12:53 PM85 °FSunny.16 mph9%30.06 "Hg10 mi
11:53 AM84 °FSunny.13 mph9%30.09 "Hg10 mi
10:53 AM84 °FSunny.17 mph9%30.11 "Hg10 mi
9:53 AM82 °FSunny.16 mph9%30.11 "Hg10 mi
8:53 AM79 °FSunny.14 mph10%30.11 "Hg10 mi
7:53 AM75 °FSunny.14 mph11%30.11 "Hg10 mi
6:53 AM72 °FSunny.16 mph13%30.09 "Hg10 mi
5:53 AM73 °FClear.17 mph12%30.09 "Hg10 mi
4:53 AM73 °FClear.16 mph12%30.08 "Hg10 mi
3:53 AM74 °FClear.18 mph11%30.06 "Hg10 mi
2:53 AM74 °FClear.14 mph11%30.08 "Hg10 mi
1:53 AM73 °FClear.15 mph12%30.09 "Hg10 mi
Weather by CustomWeather, © 2016

See weather overviewHow to use our weather pages